Regional Weather Roundup
Issued by NWS

Home | Current Version | Previous Version | Text Only | Print | Product List | Glossary On
Versions: 1 2 3 4 5 6 7 8 9 10 11 12 13 14 15 16 17 18 19 20 21 22 23 24 25 26 27 28 29 30 31 32 33 34 35 36 37 38 39 40 41 42 43 44 45 46 47 48 49 50
000
ASUS44 KMEG 301910
RWRTN
TENNESSEE HOURLY STATE WEATHER ROUNDUP
NATIONAL WEATHER SERVICE MEMPHIS TN
200 PM CDT MON MAY 30 2016

TNZ002-004-019-021-049-052-054-088>092-302000-
WEST TENNESSEE

CITY           SKY/WX    TMP DP  RH WIND       PRES   REMARKS
MEMPHIS INTL   MOSUNNY   89  63  41 CALM      30.02F HX  90
NWS MEMPHIS      N/A     87 N/A N/A MISG        N/A
JACKSON        SUNNY     88  58  36 NE5       30.03F
DYERSBURG      SUNNY     86  59  39 E9        30.02F
UNION CITY     MOSUNNY   86  61  42 VRB3      30.03F
PARIS          MOSUNNY   82  57  42 NW3       30.05F
LEXINGTON      MOSUNNY   86  57  37 N6        30.03F
$$

TNZ008-025-027-028-033-062-065-066-302000-
NORTH MIDDLE TENNESSEE

CITY           SKY/WX    TMP DP  RH WIND       PRES   REMARKS
NASHVILLE      MOSUNNY   88  56  33 NW9       30.03S
CLARKSVILLE    MOSUNNY   84  58  40 NW8       30.04S
SMYRNA         MOSUNNY   89  59  36 NW12      30.03F
COOKEVILLE     MOSUNNY   88  63  42 VRB7      30.02F
CROSSVILLE     PTSUNNY   82  58  43 N7        30.06F
$$

TNZ061-075-076-078-094-096-097-302000-
SOUTH MIDDLE TENNESSEE

CITY           SKY/WX    TMP DP  RH WIND       PRES   REMARKS
FAYETTEVILLE   MOSUNNY   86  63  45 VRB5      30.02S
TULLAHOMA      SUNNY     84  59  42 VRB5      30.04F
WINCHESTER     MOSUNNY   86  59  39 VRB5      30.02F
MCMINNVILLE    MOSUNNY   86  63  45 N9        30.03F
COLUMBIA       MOSUNNY   88  61  40 N6        30.02F
SHELBYVILLE    MOSUNNY   90  63  40 N8        30.03S HX  90
$$

TNZ017-018-042-046-047-302000-
NORTHEAST TENNESSEE

CITY           SKY/WX    TMP DP  RH WIND       PRES   REMARKS
TRI CITIES     MOSUNNY   84  60  44 W3        30.01F
$$

TNZ012-013-036-069-073-074-302000-
CENTRAL EAST TENNESSEE

CITY           SKY/WX    TMP DP  RH WIND       PRES   REMARKS
KNOXVILLE      PTSUNNY   86  62  44 N3        29.98F
OAK RIDGE      MOSUNNY   87  63  44 VRB5      30.00F
GATLINBURG       N/A     84  61  45 CALM      29.98F
$$

TNZ083-085-099-302000-
SOUTHEAST TENNESSEE

CITY           SKY/WX    TMP DP  RH WIND       PRES   REMARKS
CHATTANOOGA    PTSUNNY   88  58  36 N6        29.97F
$$

SKY/WX REPORTED AS FAIR MEANS FEW OR NO CLOUDS BELOW
12 THOUSAND FEET.





USA.gov is the U.S. government's official web portal to all federal, state and local government web resources and services.